"Period start","avg(HW err(1)/warn(2) (#))","avg(Visibility (m))","avg(Weather code (#))","avg(Precip intensity (mm/h))","min(HW err(1)/warn(2) (#))","max(HW err(1)/warn(2) (#))","std(HW err(1)/warn(2) (#))","med(HW err(1)/warn(2) (#))","min(Visibility (m))","max(Visibility (m))","std(Visibility (m))","med(Visibility (m))","min(Weather code (#))","max(Weather code (#))","std(Weather code (#))","med(Weather code (#))","min(Precip intensity (mm/h))","max(Precip intensity (mm/h))","std(Precip intensity (mm/h))","med(Precip intensity (mm/h))"
2016-07-07 00:00:00,0,49040,0,0.00,0,0,0,0,41568,50000,2515,50000,0,0,0,0,0.00,0.00,0.00,0.00
2016-07-07 00:10:00,0,48393,6,0.00,0,0,0,0,35928,50000,4179,50000,0,61,18,0,0.00,0.00,0.00,0.00
2016-07-07 00:20:00,0,48732,18,0.25,0,0,0,0,38948,50000,3277,50000,0,61,28,0,0.00,2.35,0.70,0.00
2016-07-07 00:30:00,0,49619,0,0.00,0,0,0,0,46192,50000,1142,50000,0,0,0,0,0.00,0.00,0.00,0.00
2016-07-07 00:40:00,0,47855,0,0.00,0,0,0,0,40405,50000,3390,50000,0,0,0,0,0.00,0.00,0.00,0.00
2016-07-07 00:50:00,0,48230,0,0.00,0,2,1,0,38790,50000,3385,49984,0,0,0,0,0.00,0.00,0.00,0.00
2016-07-07 01:00:00,0,42614,12,0.57,0,0,0,0,15594,50000,10509,47131,0,61,24,0,0.00,4.00,1.25,0.00
2016-07-07 01:10:00,0,28653,61,2.81,0,2,1,0,13742,49179,12200,29410,61,61,0,61,0.00,6.50,2.40,2.15
2016-07-07 01:20:00,0,44169,56,0.36,0,0,0,0,36671,50000,4221,44984,51,61,5,56,0.05,1.30,0.42,0.15
2016-07-07 01:30:00,0,41043,60,0.29,0,0,0,0,32873,50000,5262,41711,51,61,3,61,0.00,1.35,0.38,0.23
2016-07-07 01:40:00,1,21851,40,5.03,0,2,1,0,9594,38442,10960,20130,0,61,26,51,0.00,18.75,6.58,1.43
2016-07-07 01:50:00,2,39768,58,0.81,0,2,1,2,27286,48691,6080,41149,51,61,5,61,0.00,2.70,0.91,0.38
2016-07-07 02:00:00,1,28999,57,2.09,0,2,1,0,13054,44244,10452,29195,52,61,4,61,0.05,6.75,2.12,1.55
2016-07-07 02:10:00,2,46702,0,0.00,2,2,0,2,37220,50000,4356,48632,0,0,0,0,0.00,0.00,0.00,0.00
2016-07-07 02:20:00,2,46448,0,0.00,2,2,0,2,35550,50000,4404,47336,0,0,0,0,0.00,0.00,0.00,0.00
2016-07-07 02:30:00,2,35509,0,0.00,2,2,0,2,12925,50000,13640,41145,0,0,0,0,0.00,0.00,0.00,0.00
2016-07-07 02:40:00,1,38656,0,0.00,0,2,1,2,22056,50000,7958,38484,0,0,0,0,0.00,0.00,0.00,0.00
2016-07-07 02:50:00,1,41743,0,0.00,0,2,1,2,28839,50000,6881,41820,0,0,0,0,0.00,0.00,0.00,0.00
2016-07-07 03:00:00,1,41801,0,0.00,0,2,1,0,26624,50000,7729,44335,0,0,0,0,0.00,0.00,0.00,0.00
2016-07-07 03:10:00,0,48522,0,0.00,0,2,1,0,43271,50000,2390,50000,0,0,0,0,0.00,0.00,0.00,0.00
2016-07-07 03:20:00,0,48418,0,0.00,0,0,0,0,44622,50000,2416,50000,0,0,0,0,0.00,0.00,0.00,0.00
2016-07-07 03:30:00,1,45069,0,0.00,0,2,1,1,39356,50000,3209,44407,0,0,0,0,0.00,0.00,0.00,0.00
2016-07-07 03:40:00,2,41669,0,0.00,2,2,0,2,27567,50000,8577,46187,0,0,0,0,0.00,0.00,0.00,0.00
2016-07-07 03:50:00,1,48392,0,0.00,0,2,1,0,41013,50000,2624,49607,0,0,0,0,0.00,0.00,0.00,0.00
2016-07-07 04:00:00,0,46102,0,0.00,0,0,0,0,39994,50000,3512,47586,0,0,0,0,0.00,0.00,0.00,0.00
2016-07-07 04:10:00,0,49795,0,0.00,0,0,0,0,48297,50000,510,50000,0,0,0,0,0.00,0.00,0.00,0.00
2016-07-07 04:20:00,0,49748,0,0.00,0,0,0,0,48279,50000,519,50000,0,0,0,0,0.00,0.00,0.00,0.00
2016-07-07 04:30:00,0,49580,0,0.00,0,0,0,0,46730,50000,973,50000,0,0,0,0,0.00,0.00,0.00,0.00
2016-07-07 04:40:00,0,44408,0,0.00,0,2,1,0,31733,50000,6638,48377,0,0,0,0,0.00,0.00,0.00,0.00
2016-07-07 04:50:00,0,46240,0,0.00,0,0,0,0,37585,50000,4358,48213,0,0,0,0,0.00,0.00,0.00,0.00
2016-07-07 05:00:00,0,48495,0,0.00,0,0,0,0,44649,50000,2033,49616,0,0,0,0,0.00,0.00,0.00,0.00
2016-07-07 05:10:00,0,46691,0,0.00,0,0,0,0,38348,50000,4326,49258,0,0,0,0,0.00,0.00,0.00,0.00
2016-07-07 05:20:00,0,47706,0,0.00,0,0,0,0,39757,50000,3284,50000,0,0,0,0,0.00,0.00,0.00,0.00
2016-07-07 05:30:00,0,49581,0,0.00,0,0,0,0,46761,50000,977,50000,0,0,0,0,0.00,0.00,0.00,0.00
2016-07-07 05:40:00,0,40416,22,0.10,0,0,0,0,28438,50000,7173,41280,0,61,28,0,0.00,0.80,0.24,0.00
2016-07-07 05:50:00,0,48979,5,0.00,0,0,0,0,45785,50000,1621,50000,0,51,15,0,0.00,0.00,0.00,0.00
2016-07-07 06:00:00,0,48759,0,0.00,0,0,0,0,43948,50000,1963,49840,0,0,0,0,0.00,0.00,0.00,0.00
2016-07-07 06:10:00,0,38928,49,0.76,0,0,0,0,25216,48538,7665,39403,0,61,24,61,0.00,4.80,1.40,0.12
2016-07-07 06:20:00,0,48863,0,0.00,0,0,0,0,44622,50000,1671,49808,0,0,0,0,0.00,0.00,0.00,0.00
2016-07-07 06:30:00,0,47634,0,0.00,0,0,0,0,40078,50000,2928,48042,0,0,0,0,0.00,0.00,0.00,0.00
2016-07-07 06:40:00,0,41325,12,0.51,0,0,0,0,11294,50000,12542,46965,0,61,24,0,0.00,4.00,1.21,0.00
2016-07-07 06:50:00,0,49728,0,0.00,0,0,0,0,48263,50000,569,50000,0,0,0,0,0.00,0.00,0.00,0.00
2016-07-07 07:00:00,0,42229,6,0.15,0,0,0,0,26796,50000,6872,44315,0,61,18,0,0.00,1.55,0.47,0.00
2016-07-07 07:10:00,0,44095,43,0.27,0,0,0,0,33455,50000,5275,45319,0,61,28,61,0.00,1.80,0.53,0.05
2016-07-07 07:20:00,0,49818,0,0.00,0,0,0,0,48702,50000,388,50000,0,0,0,0,0.00,0.00,0.00,0.00
2016-07-07 07:30:00,0,44965,0,0.00,0,0,0,0,33822,50000,5353,46464,0,0,0,0,0.00,0.00,0.00,0.00
2016-07-07 07:40:00,0,49312,0,0.00,0,0,0,0,44560,50000,1614,50000,0,0,0,0,0.00,0.00,0.00,0.00
2016-07-07 07:50:00,0,37679,31,3.36,0,0,0,0,12354,50000,16376,48736,0,62,31,30,0.00,20.35,6.26,0.03
2016-07-07 08:00:00,0,18524,61,6.85,0,0,0,0,11228,24105,4967,20514,61,62,0,61,0.65,16.05,4.54,5.28
2016-07-07 08:10:00,0,25067,61,6.05,0,0,0,0,10623,49009,12025,19870,61,62,0,61,0.05,25.40,8.22,1.62
2016-07-07 08:20:00,0,37114,61,2.04,0,0,0,0,22616,47153,8127,38796,61,61,0,61,0.00,8.65,2.64,0.97
2016-07-07 08:30:00,0,48496,40,0.34,0,0,0,0,46029,50000,1564,49308,0,61,26,51,0.00,2.20,0.66,0.03
2016-07-07 08:40:00,0,49553,0,0.00,0,0,0,0,47571,50000,815,50000,0,0,0,0,0.00,0.00,0.00,0.00
2016-07-07 08:50:00,0,49953,0,0.00,0,0,0,0,49530,50000,141,50000,0,0,0,0,0.00,0.00,0.00,0.00
2016-07-07 09:00:00,0,50000,0,0.00,0,0,0,0,50000,50000,0,50000,0,0,0,0,0.00,0.00,0.00,0.00
2016-07-07 09:10:00,0,49048,0,0.00,0,0,0,0,45896,50000,1568,50000,0,0,0,0,0.00,0.00,0.00,0.00
2016-07-07 09:20:00,0,46329,0,0.00,0,0,0,0,30887,50000,5771,49718,0,0,0,0,0.00,0.00,0.00,0.00
2016-07-07 09:30:00,0,27145,22,0.03,0,0,0,0,13088,42775,9720,25835,0,61,28,0,0.00,0.10,0.03,0.00
2016-07-07 09:40:00,0,17439,43,0.30,0,0,0,0,12291,27052,4716,15274,0,61,22,52,0.00,1.25,0.35,0.28
2016-07-07 09:50:00,0,39216,48,0.33,0,0,0,0,15792,50000,12046,45142,0,61,16,51,0.00,1.35,0.38,0.25
2016-07-07 10:00:00,0,39664,28,5.74,0,0,0,0,4907,50000,17195,50000,0,62,28,26,0.00,29.35,11.43,0.00
2016-07-07 10:10:00,0,22161,49,2.65,0,0,0,0,8432,50000,14778,13480,0,62,24,61,0.00,14.05,4.37,0.30
2016-07-07 10:20:00,0,50000,0,0.00,0,0,0,0,50000,50000,0,50000,0,0,0,0,0.00,0.00,0.00,0.00
2016-07-07 10:30:00,0,50000,0,0.00,0,0,0,0,50000,50000,0,50000,0,0,0,0,0.00,0.00,0.00,0.00
2016-07-07 10:40:00,0,49851,0,0.00,0,0,0,0,48510,50000,447,50000,0,0,0,0,0.00,0.00,0.00,0.00
2016-07-07 10:50:00,0,48682,28,0.08,0,0,0,0,44169,50000,1862,49770,0,61,28,26,0.00,0.40,0.14,0.00
2016-07-07 11:00:00,0,49071,55,0.07,0,0,0,0,43887,50000,1829,50000,51,61,5,51,0.00,0.20,0.06,0.05
2016-07-07 11:10:00,0,46370,53,0.25,0,0,0,0,38713,50000,4609,49262,51,61,4,51,0.10,0.55,0.14,0.23
2016-07-07 11:20:00,0,47976,21,0.01,0,0,0,0,43822,50000,1812,48100,0,61,26,0,0.00,0.05,0.02,0.00
2016-07-07 11:30:00,0,50000,0,0.00,0,0,0,0,50000,50000,0,50000,0,0,0,0,0.00,0.00,0.00,0.00
2016-07-07 11:40:00,0,49897,0,0.00,0,0,0,0,48966,50000,310,50000,0,0,0,0,0.00,0.00,0.00,0.00
2016-07-07 11:50:00,0,49838,0,0.00,0,0,0,0,48702,50000,391,50000,0,0,0,0,0.00,0.00,0.00,0.00
2016-07-07 12:00:00,0,50000,0,0.00,0,0,0,0,50000,50000,0,50000,0,0,0,0,0.00,0.00,0.00,0.00
2016-07-07 12:10:00,0,49360,0,0.00,0,0,0,0,43946,50000,1808,50000,0,0,0,0,0.00,0.00,0.00,0.00
2016-07-07 12:20:00,0,50000,0,0.00,0,0,0,0,50000,50000,0,50000,0,0,0,0,0.00,0.00,0.00,0.00
2016-07-07 12:30:00,0,49931,0,0.00,0,0,0,0,49368,50000,188,50000,0,0,0,0,0.00,0.00,0.00,0.00
2016-07-07 12:40:00,0,50000,0,0.00,0,0,0,0,50000,50000,0,50000,0,0,0,0,0.00,0.00,0.00,0.00
2016-07-07 12:50:00,0,47581,0,0.00,0,0,0,0,40141,50000,3233,49334,0,0,0,0,0.00,0.00,0.00,0.00
2016-07-07 13:00:00,0,49950,0,0.00,0,0,0,0,49499,50000,150,50000,0,0,0,0,0.00,0.00,0.00,0.00
2016-07-07 13:10:00,0,49820,0,0.00,0,0,0,0,48197,50000,541,50000,0,0,0,0,0.00,0.00,0.00,0.00
2016-07-07 13:20:00,0,49757,0,0.00,0,0,0,0,48486,50000,504,50000,0,0,0,0,0.00,0.00,0.00,0.00
2016-07-07 13:30:00,0,50000,0,0.00,0,0,0,0,50000,50000,0,50000,0,0,0,0,0.00,0.00,0.00,0.00
2016-07-07 13:40:00,0,50000,0,0.00,0,0,0,0,50000,50000,0,50000,0,0,0,0,0.00,0.00,0.00,0.00
2016-07-07 13:50:00,0,50000,0,0.00,0,0,0,0,50000,50000,0,50000,0,0,0,0,0.00,0.00,0.00,0.00
2016-07-07 14:00:00,0,50000,0,0.00,0,0,0,0,50000,50000,0,50000,0,0,0,0,0.00,0.00,0.00,0.00
2016-07-07 14:10:00,0,50000,0,0.00,0,0,0,0,50000,50000,0,50000,0,0,0,0,0.00,0.00,0.00,0.00
2016-07-07 14:20:00,0,50000,0,0.00,0,0,0,0,50000,50000,0,50000,0,0,0,0,0.00,0.00,0.00,0.00
2016-07-07 14:30:00,1,50000,0,0.00,0,2,1,0,50000,50000,0,50000,0,0,0,0,0.00,0.00,0.00,0.00
2016-07-07 14:40:00,2,50000,0,0.00,2,2,0,2,50000,50000,0,50000,0,0,0,0,0.00,0.00,0.00,0.00
2016-07-07 14:50:00,2,49940,0,0.00,2,2,0,2,49401,50000,180,50000,0,0,0,0,0.00,0.00,0.00,0.00
2016-07-07 15:00:00,2,50000,0,0.00,2,2,0,2,50000,50000,0,50000,0,0,0,0,0.00,0.00,0.00,0.00
2016-07-07 15:10:00,2,50000,0,0.00,2,2,0,2,50000,50000,0,50000,0,0,0,0,0.00,0.00,0.00,0.00
2016-07-07 15:20:00,2,50000,0,0.00,2,2,0,2,50000,50000,0,50000,0,0,0,0,0.00,0.00,0.00,0.00
2016-07-07 15:30:00,2,50000,0,0.00,2,2,0,2,50000,50000,0,50000,0,0,0,0,0.00,0.00,0.00,0.00
2016-07-07 15:40:00,2,50000,0,0.00,2,2,0,2,50000,50000,0,50000,0,0,0,0,0.00,0.00,0.00,0.00
2016-07-07 15:50:00,2,50000,0,0.00,2,2,0,2,50000,50000,0,50000,0,0,0,0,0.00,0.00,0.00,0.00
2016-07-07 16:00:00,2,49902,0,0.00,2,2,0,2,49019,50000,294,50000,0,0,0,0,0.00,0.00,0.00,0.00
2016-07-07 16:10:00,2,49541,0,0.00,2,2,0,2,48169,50000,712,50000,0,0,0,0,0.00,0.00,0.00,0.00
2016-07-07 16:20:00,1,50000,0,0.00,0,2,1,0,50000,50000,0,50000,0,0,0,0,0.00,0.00,0.00,0.00
2016-07-07 16:30:00,1,50000,0,0.00,0,2,1,2,50000,50000,0,50000,0,0,0,0,0.00,0.00,0.00,0.00
2016-07-07 16:40:00,2,49910,0,0.00,2,2,0,2,49384,50000,195,50000,0,0,0,0,0.00,0.00,0.00,0.00
2016-07-07 16:50:00,2,50000,0,0.00,2,2,0,2,50000,50000,0,50000,0,0,0,0,0.00,0.00,0.00,0.00
2016-07-07 17:00:00,2,50000,0,0.00,2,2,0,2,50000,50000,0,50000,0,0,0,0,0.00,0.00,0.00,0.00
2016-07-07 17:10:00,2,50000,0,0.00,2,2,0,2,50000,50000,0,50000,0,0,0,0,0.00,0.00,0.00,0.00
2016-07-07 17:20:00,2,49307,0,0.00,2,2,0,2,45594,50000,1449,50000,0,0,0,0,0.00,0.00,0.00,0.00
2016-07-07 17:30:00,2,50000,0,0.00,2,2,0,2,50000,50000,0,50000,0,0,0,0,0.00,0.00,0.00,0.00
2016-07-07 17:40:00,2,50000,0,0.00,2,2,0,2,50000,50000,0,50000,0,0,0,0,0.00,0.00,0.00,0.00
2016-07-07 17:50:00,2,49923,0,0.00,2,2,0,2,49231,50000,231,50000,0,0,0,0,0.00,0.00,0.00,0.00
2016-07-07 18:00:00,2,49633,0,0.00,2,2,0,2,47627,50000,772,50000,0,0,0,0,0.00,0.00,0.00,0.00
2016-07-07 18:10:00,2,50000,0,0.00,2,2,0,2,50000,50000,0,50000,0,0,0,0,0.00,0.00,0.00,0.00
2016-07-07 18:20:00,2,50000,0,0.00,2,2,0,2,50000,50000,0,50000,0,0,0,0,0.00,0.00,0.00,0.00
2016-07-07 18:30:00,2,49657,0,0.00,2,2,0,2,47204,50000,839,50000,0,0,0,0,0.00,0.00,0.00,0.00
2016-07-07 18:40:00,2,49918,0,0.00,2,2,0,2,49182,50000,245,50000,0,0,0,0,0.00,0.00,0.00,0.00
2016-07-07 18:50:00,2,50000,0,0.00,2,2,0,2,50000,50000,0,50000,0,0,0,0,0.00,0.00,0.00,0.00
2016-07-07 19:00:00,2,50000,0,0.00,2,2,0,2,50000,50000,0,50000,0,0,0,0,0.00,0.00,0.00,0.00
2016-07-07 19:10:00,2,50000,0,0.00,2,2,0,2,50000,50000,0,50000,0,0,0,0,0.00,0.00,0.00,0.00
2016-07-07 19:20:00,2,49242,0,0.00,2,2,0,2,45984,50000,1519,50000,0,0,0,0,0.00,0.00,0.00,0.00
2016-07-07 19:30:00,2,50000,0,0.00,2,2,0,2,50000,50000,0,50000,0,0,0,0,0.00,0.00,0.00,0.00
2016-07-07 19:40:00,2,50000,0,0.00,2,2,0,2,50000,50000,0,50000,0,0,0,0,0.00,0.00,0.00,0.00
2016-07-07 19:50:00,2,50000,0,0.00,2,2,0,2,50000,50000,0,50000,0,0,0,0,0.00,0.00,0.00,0.00
2016-07-07 20:00:00,2,49360,0,0.00,2,2,0,2,47102,50000,1046,50000,0,0,0,0,0.00,0.00,0.00,0.00
2016-07-07 20:10:00,2,49463,0,0.00,2,2,0,2,44633,50000,1610,50000,0,0,0,0,0.00,0.00,0.00,0.00
2016-07-07 20:20:00,2,49965,0,0.00,2,2,0,2,49648,50000,106,50000,0,0,0,0,0.00,0.00,0.00,0.00
2016-07-07 20:30:00,2,50000,0,0.00,2,2,0,2,50000,50000,0,50000,0,0,0,0,0.00,0.00,0.00,0.00
2016-07-07 20:40:00,2,50000,0,0.00,2,2,0,2,50000,50000,0,50000,0,0,0,0,0.00,0.00,0.00,0.00
2016-07-07 20:50:00,2,50000,0,0.00,2,2,0,2,50000,50000,0,50000,0,0,0,0,0.00,0.00,0.00,0.00
2016-07-07 21:00:00,2,50000,0,0.00,2,2,0,2,50000,50000,0,50000,0,0,0,0,0.00,0.00,0.00,0.00
2016-07-07 21:10:00,2,50000,0,0.00,2,2,0,2,50000,50000,0,50000,0,0,0,0,0.00,0.00,0.00,0.00
2016-07-07 21:20:00,2,49720,0,0.00,2,2,0,2,48290,50000,578,50000,0,0,0,0,0.00,0.00,0.00,0.00
2016-07-07 21:30:00,2,49389,0,0.00,2,2,0,2,46366,50000,1249,50000,0,0,0,0,0.00,0.00,0.00,0.00
2016-07-07 21:40:00,2,44368,0,0.00,2,2,0,2,32950,50000,6451,47577,0,0,0,0,0.00,0.00,0.00,0.00
2016-07-07 21:50:00,2,48797,0,0.00,2,2,0,2,43287,50000,1990,49792,0,0,0,0,0.00,0.00,0.00,0.00
2016-07-07 22:00:00,2,50000,0,0.00,2,2,0,2,50000,50000,0,50000,0,0,0,0,0.00,0.00,0.00,0.00
2016-07-07 22:10:00,2,48522,0,0.00,2,2,0,2,42790,50000,2597,49854,0,0,0,0,0.00,0.00,0.00,0.00
2016-07-07 22:20:00,2,47305,0,0.00,2,2,0,2,38626,50000,3278,47935,0,0,0,0,0.00,0.00,0.00,0.00
2016-07-07 22:30:00,2,49880,0,0.00,2,2,0,2,49454,50000,205,50000,0,0,0,0,0.00,0.00,0.00,0.00
2016-07-07 22:40:00,2,49508,0,0.00,2,2,0,2,46951,50000,1019,50000,0,0,0,0,0.00,0.00,0.00,0.00
2016-07-07 22:50:00,2,50000,0,0.00,2,2,0,2,50000,50000,0,50000,0,0,0,0,0.00,0.00,0.00,0.00
2016-07-07 23:00:00,2,49153,0,0.00,2,2,0,2,45803,50000,1588,50000,0,0,0,0,0.00,0.00,0.00,0.00
2016-07-07 23:10:00,2,49750,0,0.00,2,2,0,2,47498,50000,751,50000,0,0,0,0,0.00,0.00,0.00,0.00
2016-07-07 23:20:00,2,49022,0,0.00,2,2,0,2,43898,50000,1853,50000,0,0,0,0,0.00,0.00,0.00,0.00
2016-07-07 23:30:00,2,41568,0,0.00,2,2,0,2,28213,50000,8841,44855,0,0,0,0,0.00,0.00,0.00,0.00
2016-07-07 23:40:00,2,45363,0,0.00,2,2,0,2,38217,50000,3737,46160,0,0,0,0,0.00,0.00,0.00,0.00
2016-07-07 23:50:00,2,49314,0,0.00,2,2,0,2,45197,50000,1433,50000,0,0,0,0,0.00,0.00,0.00,0.00
